Regional Weather Roundup
Issued by NWS

Home | Current Version | Previous Version | Text Only | Print | Product List | Glossary On
Versions: 1 2 3 4 5 6 7 8 9 10 11 12 13 14 15 16 17 18 19 20 21 22 23 24 25 26 27 28 29 30 31 32 33 34 35 36 37 38 39 40 41 42 43 44 45 46 47 48 49 50
000
ASUS43 KLSX 180607
RWRMO

WEATHER SUMMARY FOR MISSOURI
NATIONAL WEATHER SERVICE SPRINGFIELD MO
1200 AM CST MON DEC 18 2017

NOTE: "FAIR" INDICATES FEW OR NO CLOUDS BELOW 12,000 FEET WITH NO
       SIGNIFICANT WEATHER AND/OR OBSTRUCTIONS TO VISIBILITY.
       CURRENT SKY AND/OR WEATHER CONDITIONS ARE NOT AVAILABLE FOR
       CHILLICOTHE AND FARMINGTON.

MOZ001>031-035>038-043-044-053-054-180700-
...NORTHERN AND WESTERN MISSOURI...

CITY           SKY/WX    TMP DP  RH WIND       PRES   REMARKS
KANSAS CTY INT CLOUDY    44  42  93 SW10      30.02S
6HR MIN TEMP:  42; 6HR MAX TEMP:  45;

KANSAS C DTWN  CLOUDY    45  41  86 SW10      30.03S
6HR MIN TEMP:  42; 6HR MAX TEMP:  48;

LEE`S SUMMIT   CLOUDY    42  42 100 SW7       30.04S
6HR MIN TEMP:  41; 6HR MAX TEMP:  46;

ST JOSEPH      CLOUDY    40  40 100 NW3       30.02S FOG
6HR MIN TEMP:  38; 6HR MAX TEMP:  42;

CHILLICOTHE      N/A     45  43  93 SW6       30.02F
6HR MIN TEMP:  43; 6HR MAX TEMP:  45;

KIRKSVILLE     CLOUDY    45  45 100 SW6       30.01F FOG
6HR MIN TEMP:  44; 6HR MAX TEMP:  45;


$$
MOZ066>068-077>081-088>096-101>105-180700-
...SOUTHWEST MISSOURI...

CITY           SKY/WX    TMP DP  RH WIND       PRES   REMARKS
SPRINGFIELD    CLOUDY    45  45 100 SW6       30.06S FOG
6HR MIN TEMP:  45; 6HR MAX TEMP:  46;

JOPLIN         CLOUDY    44  44 100 SW7       30.09S
6HR MIN TEMP:  44; 6HR MAX TEMP:  45;

BRANSON        CLOUDY    46  46 100 CALM      30.09R

$$
MOZ032>034-039>042-045>050-055>058-069>072-180700-
...CENTRAL MISSOURI...

CITY           SKY/WX    TMP DP  RH WIND       PRES   REMARKS
COLUMBIA       CLOUDY    45  42  89 SW12      30.05S
6HR MIN TEMP:  45; 6HR MAX TEMP:  45;

JEFFERSON CITY CLOUDY    47  41  80 W6        30.07S
6HR MIN TEMP:  47; 6HR MAX TEMP:  48;

ROLLA          CLOUDY    44  44 100 SW5       30.06S FOG
6HR MIN TEMP:  44; 6HR MAX TEMP:  46;

SEDALIA        CLOUDY    44  43  96 SW9       30.06S
6HR MIN TEMP:  43; 6HR MAX TEMP:  46;

WHITEMAN AFB   CLOUDY    41  40  95 SW6       30.01S
WARRENSBURG    CLOUDY    41  39  93 S3        30.05S
OSAGE BEACH    LGT RAIN  44  43  96 CALM      30.07F

$$
MOZ051-052-059>065-180700-
...EAST CENTRAL MISSOURI...

CITY           SKY/WX    TMP DP  RH WIND       PRES   REMARKS
ST LOUIS INTL  CLOUDY    47  44  90 SW10      30.06F
6HR MIN TEMP:  47; 6HR MAX TEMP:  50; 6HR PCP: TRACE;

SPIRIT OF STL  CLOUDY    48  43  82 SW6       30.06S
6HR MIN TEMP:  47; 6HR MAX TEMP:  50;

ST CHARLES     CLOUDY    48  43  82 SW8       30.05F
6HR MIN TEMP:  47; 6HR MAX TEMP:  52;


$$
MOZ072>076-082>087-097>100-106>115-180700-
...SOUTH CENTRAL AND SOUTHEAST MISSOURI...

CITY           SKY/WX    TMP DP  RH WIND       PRES   REMARKS
CAPE GIRARDEAU CLOUDY    45  43  93 SW6       30.12S
6HR MIN TEMP:  45; 6HR MAX TEMP:  46;

FARMINGTON     CLOUDY   N/A N/A N/A S5        30.08F
POPLAR BLUFF   CLOUDY    45  44  97 S9        30.11F FOG
6HR MIN TEMP:  45; 6HR MAX TEMP:  46;

WEST PLAINS    FOG       45  45 100 S5        30.08F VSB 1/4
6HR MIN TEMP:  45; 6HR MAX TEMP:  46;


$$



USA.gov is the U.S. government's official web portal to all federal, state and local government web resources and services.